Weather History for KCMA - March, 2012

Change the Weather History Date:

Monday, March 5, 2012

  Actual Average Record
Temperature  
Mean Temperature 62 °F 55 °F  
Max Temperature 75 °F 65 °F 84 °F (1953)
Min Temperature 49 °F 45 °F 34 °F (1967)
Degree Days  
Heating Degree Days 3 10  
Month to date heating degree days 27 51  
Since 1 July heating degree days 1091 1387  
Cooling Degree Days 0 0  
Month to date cooling degree days 1 0  
Year to date cooling degree days 11 9  
Growing Degree Days 12 (Base 50)    
Moisture  
Dew Point 43 °F    
Average Humidity 60    
Maximum Humidity 96    
Minimum Humidity 24    
Precipitation  
Precipitation 0.00 in 0.16 in 2.00 in (2001)
Month to date precipitation 0.00 0.91  
Year to date precipitation 1.64 8.09  
Since 1 July precipitation 4.67  
Sea Level Pressure  
Sea Level Pressure 29.98 in    
Wind  
Wind Speed 3 mph (West)    
Max Wind Speed 10 mph    
Max Gust Speed 13 mph    
Visibility 6 miles    
Events Fog    
T = Trace of Precipitation, MM = Missing Value Source: NWS Daily Summary

Daily Weather History Graph

Daily Weather History Graph

Search for Another Location

Airport or City:

Trip Planner

Search our weather history database for the weather conditions in past years. The results will help you decide how hot, cold, wet, or windy it might be!

Date:

Astronomy

Mar. 05, 2012 Rise Set
Actual Time 6:19 AM PST 5:56 PM PST
Civil Twilight 5:54 AM PST 6:21 PM PST
Nautical Twilight 5:25 AM PST 6:50 PM PST
Astronomical Twilight 4:56 AM PST 7:19 PM PST
Moon 3:25 PM PST (3/5) 4:15 AM PST (3/5)
Length of Visible Light 12h 27m
Length of Day
11h 37m
Waxing Gibbous, 91% of the Moon is Illuminated
Mar 5
Waxing Gibbous
Mar 8
Full
Mar 14
Last Quarter
Mar 22
New
Mar 30
First Quarter

Hourly Weather History & Observations

Time (PST) Temp. Dew Point Humidity Pressure Visibility Wind Dir Wind Speed Gust Speed Precip Events Conditions
12:55 AM 54.0 °F 35.1 °F 49% 30.01 in 10.0 mi Calm Calm - N/A   Clear
1:55 AM 53.1 °F 33.1 °F 47% 30.00 in 10.0 mi Calm Calm - N/A   Clear
2:55 AM 52.0 °F 34.0 °F 50% 29.99 in 10.0 mi Calm Calm - N/A   Clear
3:55 AM 53.1 °F 30.9 °F 43% 29.99 in 10.0 mi Calm Calm - N/A   Clear
4:55 AM 54.0 °F 33.1 °F 45% 29.99 in 10.0 mi Calm Calm - N/A   Clear
5:55 AM 52.0 °F 33.1 °F 49% 29.99 in 10.0 mi NE 3.5 mph - N/A   Clear
6:55 AM 55.0 °F 32.0 °F 42% 30.00 in 10.0 mi NE 3.5 mph - N/A   Clear
7:55 AM 62.1 °F 30.9 °F 31% 30.02 in 10.0 mi West 3.5 mph - N/A   Clear
8:55 AM 66.9 °F 32.0 °F 27% 30.03 in 10.0 mi Calm Calm - N/A   Clear
9:55 AM 72.0 °F 32.0 °F 23% 30.03 in 10.0 mi Calm Calm - N/A   Clear
10:55 AM 73.9 °F 37.9 °F 27% 30.03 in 10.0 mi WSW 5.8 mph - N/A   Clear
11:55 AM 71.1 °F 44.1 °F 38% 30.03 in 10.0 mi WSW 6.9 mph - N/A   Clear
12:55 PM 71.1 °F 42.1 °F 35% 30.01 in 9.0 mi WSW 8.1 mph - N/A   Clear
1:55 PM 70.0 °F 44.1 °F 39% 29.98 in 10.0 mi West 9.2 mph - N/A   Clear
2:50 PM 69.8 °F 39.2 °F 33% 29.94 in 6.0 mi West 9.2 mph - N/A   Haze
2:55 PM 71.1 °F 39.9 °F 32% 29.97 in 10.0 mi West 8.1 mph - N/A   Clear
3:55 PM 70.0 °F 44.1 °F 39% 29.96 in 10.0 mi West 5.8 mph - N/A   Clear
4:55 PM 63.0 °F 48.9 °F 60% 29.96 in 9.0 mi West 8.1 mph - N/A   Clear
5:55 PM 55.9 °F 48.9 °F 77% 29.97 in 10.0 mi West 5.8 mph - N/A   Clear
6:37 PM 53.6 °F 50.0 °F 88% 29.95 in 2.5 mi SW 4.6 mph - N/A   Partly Cloudy
6:47 PM 53.6 °F 50.0 °F 88% 29.95 in 3.0 mi WSW 3.5 mph - N/A   Mostly Cloudy
6:55 PM 53.1 °F 50.0 °F 89% 29.98 in 1.5 mi Calm Calm - N/A   Mostly Cloudy
7:24 PM 53.6 °F 50.0 °F 88% 29.95 in 1.5 mi West 4.6 mph - N/A   Scattered Clouds
7:34 PM 53.6 °F 50.0 °F 88% 29.95 in 1.5 mi WNW 4.6 mph - N/A   Mostly Cloudy
7:55 PM 53.1 °F 50.0 °F 89% 29.98 in 1.5 mi WNW 4.6 mph - N/A   Mostly Cloudy
8:02 PM 51.8 °F 50.0 °F 94% 29.95 in 4.0 mi WNW 3.5 mph - N/A   Overcast
8:15 PM 51.8 °F 48.2 °F 88% 29.95 in 2.5 mi WNW 3.5 mph - N/A   Overcast
8:23 PM 51.8 °F 48.2 °F 88% 29.96 in 1.5 mi WNW 3.5 mph - N/A   Overcast
8:34 PM 51.8 °F 48.2 °F 88% 29.96 in 0.5 mi West 3.5 mph - N/A Fog Fog
8:55 PM 51.1 °F 48.9 °F 92% 29.99 in 0.2 mi Calm Calm - N/A Fog Fog
9:55 PM 51.1 °F 48.9 °F 92% 29.99 in 0.2 mi Calm Calm - N/A Fog Fog
10:55 PM 51.1 °F 50.0 °F 96% 29.99 in 0.2 mi Calm Calm - N/A Fog Fog
11:55 PM 51.1 °F 48.9 °F 92% 29.97 in 0.2 mi Calm Calm - N/A Fog Fog